RH
9 9 8 7 7 7 7 7 7 7 7 7 7 7 7 7 7 7 7 7 7 6 7 7 7 7 7 7 7 7 7 7 7 6 6 6 6 6 6 6 6 7 7 7 7 7 7 7 7 7 7 7 7 7 7 7 7 8 8 8 9 9 9 10 11 12 14 15 15 14 14 13 13 12 11 11 11 11 12 12 12 12 11 11 11 11 11 11 11 11 11 11 10 10 10 10 10 10 10 10 10 10 10
7 7 7 7 8 8 8 8 8 9 9 9 9 9 9 9 9 9 8 8 8 8 8 8 8 8 8 8 8 8 8 8 8 7 7 7 7 7 7 7 7 7 7 7 7 7 7 7 7 7 7 7 7 7 7 8 8 8 8 8 9 9 9 9 10 12 14 15 16 16 15 14 14 13 13 12 12 12 12 12 12 12 12 12 12 12 12 12 12 12 12 12 12 11 11 11 11 10 10 10 10 10 11
8 8 9 9 9 9 9 10 10 10 10 10 11 11 11 11 11 10 10 10 10 10 10 9 9 10 9 9 9 9 9 9 9 8 8 8 8 8 8 8 7 7 7 7 7 7 7 7 8 8 8 8 8 8 8 8 8 8 8 9 9 9 9 10 10 11 13 15 17 19 16 17 16 15 14 13 13 12 12 12 12 12 12 12 12 12 12 12 12 12 12 12 12 12 12 12 11 11 11 11 11 11 11
9 9 9 9 10 10 10 10 11 11 11 11 12 12 12 12 12 12 12 12 11 11 11 11 11 10 10 10 10 10 10 10 9 9 9 9 9 9 9 9 8 8 8 8 8 8 8 8 8 8 8 8 9 9 9 8 8 9 9 9 9 9 9 10 10 11 12 14 16 18 18 19 18 16 16 14 14 13 14 13 13 12 12 12 12 12 12 12 12 12 12 12 12 12 12 12 12 11 11 11 11 11 11
9 10 10 10 10 10 10 11 11 11 12 12 12 12 12 13 13 13 13 12 12 12 12 12 11 11 11 11 11 11 11 11 10 10 10 10 10 10 10 10 10 9 9 9 9 9 9 9 9 9 9 10 10 10 9 9 9 9 9 10 10 10 10 10 10 11 11 12 14 15 16 19 18 16 16 14 14 14 14 13 13 13 13 13 13 13 12 12 12 12 12 12 12 12 12 12 11 11 11 11 11 11 11
10 10 10 11 11 11 12 12 12 12 12 12 13 13 13 13 13 13 13 13 13 13 13 13 12 12 12 12 12 12 11 11 11 11 11 11 11 10 10 10 10 10 10 10 10 10 10 10 10 10 10 10 10 10 10 10 10 10 10 10 10 10 10 10 11 11 11 12 12 13 15 16 16 16 15 14 13 13 13 13 13 13 13 13 14 14 13 13 12 12 12 11 12 12 12 12 11 11 11 11 11 11 11
12 12 12 13 13 13 14 14 14 14 14 14 14 13 13 13 13 14 14 14 14 14 14 14 13 13 13 13 13 13 13 12 12 12 12 11 11 11 11 11 11 11 11 11 11 11 11 11 11 11 11 11 11 11 11 11 11 11 11 11 11 11 11 11 11 11 11 12 12 13 13 14 15 15 15 14 13 13 13 13 13 13 13 13 13 13 14 14 13 13 12 12 12 12 12 12 12 12 11 11 11 11 11
14 14 14 15 15 16 16 17 17 17 16 16 15 15 14 14 14 14 15 15 15 15 15 15 15 14 14 14 14 14 14 13 13 13 13 12 12 12 12 12 12 12 11 11 12 12 12 12 12 12 12 12 12 12 12 12 12 12 11 11 11 11 11 11 11 11 12 12 12 13 13 14 14 14 14 13 13 13 13 13 13 13 13 13 12 12 13 13 13 13 13 13 13 12 12 12 12 12 11 11 11 11 12
16 16 16 17 17 17 18 18 18 18 18 17 17 16 16 16 16 17 19 18 17 17 18 18 17 15 15 15 15 15 14 14 14 14 14 13 13 13 13 12 12 12 12 12 12 12 12 12 12 12 12 12 13 12 12 12 12 12 12 12 11 11 12 12 12 12 12 13 13 14 14 14 14 14 14 13 13 13 13 13 13 13 13 12 12 12 12 12 13 13 13 13 13 13 12 12 12 11 12 11 12 12 12
17 17 17 17 17 18 18 18 18 18 18 18 18 18 18 18 18 19 20 20 20 21 22 21 19 17 16 16 15 15 15 15 15 15 14 14 14 14 14 13 13 13 13 13 13 13 12 13 13 13 13 13 13 13 13 13 13 12 12 12 12 12 12 12 12 12 12 13 14 14 15 15 15 15 14 14 13 13 13 13 13 13 13 13 13 13 12 12 12 12 13 13 13 13 12 12 12 12 11 11 11 12 12
16 16 16 16 17 17 18 18 18 18 18 18 18 19 20 21 21 21 22 23 23 24 25 23 20 18 16 16 16 15 15 15 15 15 15 15 15 14 14 14 14 14 14 14 13 13 13 13 14 14 13 14 13 13 13 13 13 13 12 12 12 12 12 12 12 12 13 14 14 15 15 15 16 15 15 14 14 13 13 14 13 13 14 13 13 13 13 12 12 12 12 12 13 13 13 13 13 12 12 11 11 11 12
14 14 15 16 16 17 17 18 18 18 18 18 19 20 21 22 22 23 23 23 24 24 25 23 20 18 17 16 16 16 15 15 15 15 15 15 15 15 14 14 14 14 14 14 14 14 14 14 15 15 14 14 14 14 14 13 13 13 12 12 12 12 12 12 13 13 13 14 14 15 15 15 15 15 15 14 14 14 14 14 14 14 14 14 14 13 13 13 13 13 12 12 12 13 13 13 13 13 13 13 12 12 11
14 14 15 16 16 17 17 17 18 18 18 19 19 19 20 21 21 21 21 21 22 22 20 20 19 17 17 16 16 16 16 15 15 15 15 15 15 15 14 14 14 14 14 15 15 15 15 16 16 16 16 15 15 15 14 14 14 13 13 13 13 13 13 13 13 13 13 14 14 14 15 15 15 14 14 14 14 14 14 14 14 14 14 14 14 14 14 14 13 13 13 13 13 13 13 13 13 14 14 14 13 13 12
15 16 16 17 17 17 17 18 18 18 18 19 19 19 19 19 19 19 19 19 19 20 19 18 18 17 17 17 16 16 16 15 15 15 15 15 15 15 15 14 14 14 14 14 14 15 16 17 17 17 16 16 16 16 16 15 15 14 14 14 14 14 14 14 14 14 14 14 14 14 15 15 15 14 14 14 14 14 14 14 14 14 15 14 15 15 15 15 14 14 14 14 14 14 13 13 13 14 14 14 14 14 13
17 18 18 18 18 18 18 18 18 18 18 19 19 19 19 19 19 19 19 18 18 18 18 18 17 17 17 17 17 16 16 15 16 16 16 16 15 15 15 15 14 14 14 14 15 16 17 18 18 17 16 16 16 17 17 16 15 15 14 15 15 15 15 15 15 15 15 15 15 15 15 15 15 14 14 14 14 14 14 14 14 14 14 15 15 15 15 15 15 15 15 15 15 14 14 14 14 14 14 15 15 15 15
19 20 20 20 20 20 19 19 19 18 19 19 19 19 19 19 19 19 19 19 18 18 18 18 18 18 17 17 17 17 17 18 18 18 17 16 16 16 15 15 15 15 14 15 16 17 18 18 18 17 16 16 16 17 17 17 16 15 15 15 15 16 16 16 15 15 15 15 15 16 16 15 15 15 15 15 14 14 15 14 14 14 14 15 15 15 15 15 15 15 15 15 15 15 15 15 15 15 15 16 16 17 18
21 21 22 23 22 22 21 21 20 20 20 20 20 20 20 20 20 20 19 19 19 19 19 19 19 19 18 18 18 19 20 23 24 23 21 20 18 17 16 16 16 15 15 17 18 19 19 19 18 17 16 16 17 17 17 17 16 15 15 16 16 16 16 16 16 16 16 16 15 16 15 15 15 15 15 15 15 15 15 14 14 14 14 15 15 15 15 16 16 16 16 16 16 16 16 16 16 17 17 17 18 18 19
24 24 25 26 26 25 25 24 23 23 23 23 22 22 23 23 23 23 22 22 21 21 21 22 21 21 21 21 21 22 26 27 27 27 26 25 23 21 20 19 18 18 18 20 21 21 20 20 19 18 16 17 17 17 18 18 17 16 16 16 16 16 16 16 16 16 16 16 16 16 16 15 15 15 15 15 15 15 15 15 15 15 15 15 15 15 16 16 16 16 16 16 17 17 17 17 18 18 18 19 19 20 21
27 26 28 29 29 29 29 28 28 27 27 27 26 26 26 27 27 27 26 25 25 24 24 24 24 25 25 26 27 28 30 30 30 29 29 29 28 27 25 24 23 22 23 23 23 23 22 21 19 18 18 18 18 18 19 18 17 16 17 17 17 17 17 16 16 16 16 16 16 16 16 16 16 16 16 16 16 16 16 16 16 16 16 16 16 16 16 16 17 17 17 17 18 19 19 20 21 21 21 21 22 23 24
29 29 30 31 31 31 31 31 31 31 31 31 30 29 29 30 31 31 30 29 28 28 28 27 28 29 31 31 31 31 31 31 31 31 31 31 31 31 29 27 26 26 26 26 25 25 23 21 20 19 19 19 19 20 21 20 19 18 18 17 17 17 17 17 16 16 16 16 16 16 16 16 16 16 16 16 17 17 17 17 17 17 17 17 17 17 18 18 18 18 18 19 19 21 22 23 24 24 25 24 24 25 26
31 32 32 31 31 31 32 32 32 32 32 32 32 31 32 32 33 32 32 31 31 31 31 31 31 32 33 32 32 32 32 32 32 32 32 31 30 30 28 27 28 28 27 27 26 25 23 21 20 20 20 20 20 21 22 21 19 18 18 18 18 18 18 17 17 17 17 17 17 17 17 17 17 17 17 17 17 17 18 17 18 18 18 18 18 19 19 19 20 21 21 21 22 23 24 24 25 26 27 27 28 28 27
32 32 32 32 31 30 32 32 33 33 33 32 32 32 32 32 32 32 32 32 32 33 32 32 32 32 32 31 32 32 32 32 32 31 30 28 27 26 26 27 27 27 27 26 25 24 22 20 20 20 20 20 20 20 21 20 19 19 19 18 18 18 18 18 18 18 18 18 18 18 18 18 18 18 18 18 18 18 18 18 19 19 19 19 20 20 20 21 23 25 25 24 25 26 26 27 27 27 28 29 30 31 30
30 30 31 31 30 30 31 31 32 32 32 32 32 31 31 31 31 31 31 31 30 30 31 31 31 31 31 31 31 31 30 30 30 29 28 25 24 24 25 26 27 26 25 25 24 23 21 20 19 19 19 20 20 20 20 20 19 19 19 19 19 18 18 18 18 19 19 19 19 19 19 19 19 19 19 19 19 19 19 20 20 20 20 20 21 21 21 22 23 25 26 26 27 28 30 30 30 30 30 31 31 32 32
30 30 30 30 30 30 31 31 31 31 31 30 30 31 29 30 30 30 29 28 27 27 28 29 30 29 30 30 30 29 29 28 28 27 27 24 23 23 25 25 25 25 24 25 24 22 20 19 19 19 20 20 20 20 20 19 19 19 19 19 19 19 19 19 19 19 19 19 19 19 19 19 19 19 19 19 19 19 20 20 20 20 21 22 22 22 23 23 24 25 27 27 28 29 31 32 32 32 32 32 33 33 33
30 30 30 30 31 31 30 30 30 30 30 29 29 29 28 29 29 29 28 27 27 27 28 28 28 28 29 29 29 28 28 27 27 26 26 25 24 24 25 24 24 24 24 24 22 21 20 20 19 19 19 20 19 19 19 18 18 18 18 18 18 18 18 18 18 18 18 18 18 18 18 18 18 18 18 18 18 19 19 19 19 20 20 21 21 22 23 23 24 24 25 26 27 28 30 31 32 33 33 33 34 34 34
30 30 30 30 31 30 29 29 29 29 28 28 28 28 27 28 29 29 29 29 28 28 29 29 29 29 29 29 28 28 27 27 27 26 25 25 25 25 25 24 24 23 23 23 21 20 19 19 18 18 18 18 18 17 17 17 16 16 16 16 16 16 16 16 16 16 16 16 16 16 16 16 16 16 17 17 17 17 17 17 17 18 18 19 19 20 20 21 22 22 23 23 24 25 26 27 29 31 32 34 34 35 35
31 30 30 30 30 29 27 27 27 28 28 27 27 27 27 28 29 29 30 30 29 29 30 29 29 29 29 29 28 28 28 28 26 24 23 23 24 24 24 24 23 22 21 20 19 18 18 17 16 16 16 15 15 14 14 14 13 13 13 13 13 13 13 13 13 14 14 14 14 14 14 15 15 15 15 15 15 16 16 16 16 17 17 18 18 18 19 19 20 20 20 21 21 21 22 23 24 26 28 30 32 33 34
31 30 29 30 30 28 27 27 28 29 29 27 27 27 28 29 29 29 30 29 29 29 29 29 29 28 28 27 27 27 28 26 23 20 20 20 20 21 22 22 21 20 19 18 16 16 15 14 13 13 13 12 12 12 11 11 11 11 11 11 11 11 11 11 11 12 12 12 12 13 13 13 13 14 14 14 14 15 15 15 15 16 17 17 17 17 18 18 18 18 19 19 20 20 21 21 22 22 23 26 28 29 30
31 30 30 30 28 28 29 28 29 29 29 26 26 28 30 30 29 29 28 28 28 28 28 27 28 28 28 26 25 25 25 22 19 17 17 17 17 18 19 19 19 17 16 14 13 12 11 11 10 10 10 10 10 10 10 10 9 9 9 9 10 10 10 10 10 10 11 11 11 11 11 12 12 12 13 13 13 13 14 14 14 15 15 16 16 16 17 17 17 17 17 18 18 19 20 20 21 21 21 22 24 25 26
32 32 31 30 30 31 31 31 30 28 27 24 26 29 31 29 28 28 26 26 26 27 27 26 26 26 25 23 23 23 21 17 15 14 14 15 15 15 16 15 14 14 13 12 11 10 9 9 9 9 9 9 9 9 9 9 9 9 9 9 9 9 9 9 10 10 10 10 11 11 11 11 12 12 12 12 12 13 13 13 13 14 14 14 15 15 15 15 16 16 16 16 16 17 17 17 18 19 19 20 21 22 23
34 33 32 33 33 33 32 30 29 27 24 25 26 28 29 27 26 25 24 24 25 25 26 24 23 22 21 20 21 20 16 14 13 13 13 13 13 13 13 13 12 11 11 10 9 9 9 9 8 8 8 9 9 9 9 9 9 9 9 9 9 9 9 9 10 10 10 10 10 11 11 11 11 11 12 12 12 12 12 13 13 13 13 14 14 14 14 14 15 15 14 14 14 15 15 15 16 16 17 17 18 18 19
32 34 34 34 34 33 31 27 26 26 25 24 24 24 25 25 25 25 24 24 24 24 24 21 20 19 20 21 20 17 15 14 13 13 12 12 12 12 12 11 10 10 10 9 9 9 9 9 8 9 9 9 9 10 10 9 9 9 9 9 9 10 10 10 10 10 10 10 10 10 11 11 11 11 11 11 11 11 12 12 12 12 12 13 13 13 13 14 13 13 13 13 13 14 14 14 14 15 15 15 16 16 17
33 35 35 34 34 33 28 28 29 29 24 22 20 20 22 25 26 25 24 23 23 22 23 23 22 21 20 20 18 16 15 15 14 12 12 12 11 11 10 10 10 9 9 9 9 9 9 9 9 9 9 9 10 10 11 10 10 10 10 10 10 10 10 11 11 11 11 11 10 10 10 10 10 10 10 10 10 11 11 11 11 11 12 12 12 12 13 13 13 13 13 13 13 14 14 14 14 14 14 15 15 15 16
36 37 35 35 35 33 30 31 30 27 23 22 21 20 20 22 22 22 21 20 20 21 23 23 21 19 17 16 15 14 14 14 13 12 11 11 11 10 10 10 10 9 9 9 9 9 9 9 9 9 9 10 11 11 11 10 10 10 10 10 11 11 11 11 10 10 10 10 10 10 10 10 10 10 10 10 10 10 10 10 10 11 11 11 11 12 12 12 13 13 13 13 13 14 14 14 14 14 15 15 15 16 16
35 36 36 35 35 34 32 30 27 24 23 23 22 20 19 18 18 17 16 16 18 21 22 19 17 15 14 13 13 13 13 12 12 11 11 11 11 10 10 10 10 10 9 9 9 9 9 9 9 10 10 10 11 11 11 11 10 10 11 11 11 11 10 10 10 10 10 10 10 10 10 10 10 9 9 9 10 10 10 10 10 10 10 10 11 11 11 11 12 12 12 13 13 14 14 14 14 14 15 15 15 15 16
33 35 34 33 32 31 30 26 23 22 22 22 21 19 18 18 17 16 15 17 18 19 18 15 14 13 13 13 13 12 12 12 11 11 12 11 11 11 11 11 10 10 10 10 10 10 10 10 10 10 10 11 11 11 11 11 11 11 11 11 11 11 10 10 10 10 10 10 10 10 10 10 10 10 10 10 10 10 9 9 10 10 10 10 10 10 10 11 11 11 11 12 12 13 12 13 13 14 14 14 14 15 15
32 32 29 26 26 28 30 26 24 22 22 21 20 19 19 19 18 17 16 17 17 16 14 14 14 14 15 14 14 14 13 13 12 12 12 12 12 12 12 11 11 11 10 10 10 11 10 11 11 11 11 11 11 11 11 12 12 12 12 11 11 11 11 11 11 11 11 10 10 10 10 10 10 10 10 10 10 10 10 10 10 10 10 10 10 10 10 10 10 10 10 10 11 11 11 11 12 12 12 13 13 13 14
30 28 26 26 27 28 29 25 23 22 21 21 20 20 19 19 18 18 17 17 17 16 15 15 15 15 17 17 16 15 14 14 14 13 13 13 12 12 12 12 11 11 11 11 11 12 11 12 12 12 12 12 12 12 12 12 12 12 12 12 12 12 12 12 11 11 11 11 11 11 11 11 11 11 11 11 10 10 10 10 10 10 10 10 10 10 10 10 10 10 10 10 10 10 10 10 10 11 11 11 11 12 12
27 28 29 28 27 26 24 23 22 21 21 21 21 20 20 20 19 19 19 19 18 17 16 16 16 16 18 17 17 16 16 16 15 15 14 13 13 13 12 12 12 12 12 12 12 13 12 13 13 13 13 13 13 13 13 13 13 13 13 13 13 13 13 12 12 12 12 12 12 12 11 11 11 11 11 11 11 11 11 11 11 11 11 11 11 11 11 11 10 11 11 11 11 10 11 10 10 10 10 10 11 11 11
26 27 29 27 25 23 21 21 21 21 21 21 21 21 20 20 20 20 20 20 19 18 18 17 17 17 17 17 17 17 17 17 16 15 14 14 14 13 13 13 13 13 13 13 13 13 13 13 13 14 14 14 14 14 14 14 14 14 14 14 14 14 13 13 13 13 13 13 12 12 12 12 12 12 12 12 12 12 12 12 12 12 12 12 12 12 12 12 12 12 12 12 12 12 12 12 12 12 12 12 12 12 12
25 25 25 24 23 21 21 21 21 21 21 21 21 21 21 21 21 21 21 21 21 20 20 19 19 18 18 18 18 18 18 17 16 15 15 14 14 14 14 14 14 14 14 14 14 14 14 14 14 14 14 14 15 15 14 15 15 15 15 15 14 14 14 14 14 13 13 13 13 13 13 13 13 13 12 13 13 13 13 13 13 13 13 13 13 13 14 14 14 14 14 14 14 14 14 14 14 14 14 14 14 14 14
23 22 21 21 21 21 21 21 22 22 22 22 22 22 22 22 22 22 22 22 22 22 21 21 21 20 19 19 19 19 18 18 17 16 15 15 15 15 15 15 15 15 15 15 15 15 15 15 15 15 15 15 15 15 15 16 16 16 16 15 15 15 15 15 14 14 14 14 14 14 13 13 13 13 13 13 13 14 14 14 14 14 15 15 15 15 15 15 15 15 16 15 15 15 15 15 15 15 15 15 15 15 15
21 21 21 21 22 22 22 22 22 22 23 23 23 23 24 24 24 24 24 24 24 23 23 23 22 22 21 21 20 20 19 18 17 16 16 16 16 16 16 16 16 16 16 16 16 16 16 16 16 16 16 16 16 16 17 18 18 18 17 16 16 16 16 16 15 15 15 15 15 14 14 14 14 14 14 14 15 15 15 15 16 16 16 16 16 16 16 17 17 17 17 17 16 16 16 16 16 16 16 16 16 17 17
21 21 21 22 22 22 23 23 23 23 24 24 24 24 25 25 25 25 25 25 25 25 25 25 24 23 23 22 22 21 20 19 18 18 17 17 17 17 17 17 17 17 17 17 17 17 17 17 17 17 17 17 17 18 19 20 20 19 18 18 18 18 17 17 16 16 16 16 16 16 16 16 16 16 16 16 16 16 17 17 17 17 17 17 17 18 18 18 18 17 17 17 17 17 17 17 17 17 17 17 18 19 19
21 22 22 23 23 23 23 24 24 25 25 25 25 26 26 26 26 26 26 26 26 26 27 26 26 25 25 25 24 23 22 21 20 19 19 18 18 18 19 19 18 18 18 19 19 19 18 18 18 18 18 18 19 20 21 21 20 20 19 19 19 19 18 18 18 17 17 17 17 18 18 17 17 17 17 17 18 18 18 18 18 18 18 18 18 18 18 18 18 18 18 18 18 18 18 19 19 19 19 19 20 21 21
22 23 23 23 24 24 25 25 25 26 26 27 27 27 27 27 27 27 27 27 28 28 28 28 27 27 26 27 26 26 24 23 22 21 20 20 20 21 21 20 20 19 20 20 20 20 20 20 19 19 20 20 21 21 22 21 21 21 20 20 20 20 20 20 19 19 19 19 20 20 20 19 19 19 19 19 19 19 19 20 20 20 20 20 20 20 20 20 20 20 20 20 20 20 20 20 20 21 21 22 22 23 24
23 24 24 24 25 25 26 27 27 28 28 28 29 29 29 29 29 29 29 29 29 29 29 29 29 28 28 29 29 28 26 24 23 22 22 22 22 22 22 21 21 21 22 22 22 22 22 21 21 21 21 22 22 23 22 22 22 22 21 21 21 21 21 21 22 21 22 22 22 22 21 21 20 20 20 20 20 21 21 21 21 21 21 21 21 21 21 21 21 21 21 21 21 21 21 22 22 23 23 24 24 25 25
24 24 25 26 27 27 28 29 30 30 30 31 31 31 31 31 31 31 31 31 30 30 30 30 30 30 29 29 30 30 28 26 25 24 23 23 24 24 23 22 22 23 24 24 24 24 23 23 23 23 23 23 24 24 23 23 23 23 23 23 23 23 23 23 23 23 24 24 24 23 22 22 22 22 22 22 22 22 22 22 22 22 22 22 22 22 23 22 23 23 23 22 22 22 22 22 23 23 24 25 25 25 26
25 26 27 28 29 30 31 32 32 32 33 33 33 33 33 33 33 32 32 32 32 31 31 31 31 31 30 30 30 30 28 27 26 25 25 25 24 24 23 23 24 25 25 25 24 24 25 25 24 24 24 25 25 25 24 25 25 25 25 25 25 24 24 24 24 25 25 25 25 24 23 23 23 23 23 23 23 23 23 23 23 23 23 23 24 24 24 24 24 24 24 24 24 24 23 23 23 23 24 25 25 26 27
27 28 30 31 32 32 33 33 34 34 34 34 34 34 34 34 34 34 33 33 32 32 32 32 32 31 31 31 31 31 29 28 26 26 26 26 25 25 25 25 26 26 26 25 25 25 26 26 25 25 25 26 26 26 25 25 25 25 25 25 26 26 26 26 26 26 26 26 25 25 25 25 25 25 25 25 25 25 25 24 24 25 25 25 25 25 25 25 26 26 26 26 25 25 25 25 24 24 25 26 26 27 28
30 31 32 33 33 34 34 35 35 35 35 35 35 35 36 35 35 35 34 34 33 33 32 32 32 32 31 32 32 33 31 28 27 27 26 26 26 26 26 27 27 26 26 25 25 26 26 26 26 26 26 26 26 25 25 25 26 26 26 27 27 27 27 26 26 27 27 27 26 26 26 26 27 27 27 27 26 26 26 26 26 26 26 26 26 26 27 27 27 27 27 27 27 26 26 26 25 25 26 26 27 27 28
32 33 34 34 35 35 35 36 36 36 36 36 37 37 36 36 36 36 35 35 34 34 33 33 32 32 32 33 33 34 32 30 28 27 27 27 26 26 27 27 27 27 27 27 26 26 27 26 26 26 26 25 25 24 25 26 27 27 27 28 28 28 27 27 27 28 28 28 28 28 28 28 28 28 29 28 28 28 28 28 28 28 28 28 28 28 28 28 28 28 28 28 27 27 27 26 26 26 26 26 26 26 27
34 35 35 36 36 36 36 37 37 37 37 37 37 37 37 37 37 36 36 36 35 35 34 34 33 33 33 33 33 33 33 31 30 29 28 28 27 27 28 29 29 29 29 29 28 27 26 26 26 26 25 24 24 25 26 27 27 27 27 28 28 28 28 28 29 29 30 30 30 30 30 30 30 30 30 30 30 30 30 30 31 30 30 30 30 30 29 29 28 28 28 28 27 27 27 26 26 25 25 25 25 26 27
35 36 37 37 38 38 38 38 38 38 38 38 38 37 37 38 37 37 37 37 36 36 35 35 35 34 34 33 33 32 32 32 32 31 30 29 29 29 29 30 30 30 30 29 28 27 27 27 27 27 26 26 26 27 28 28 28 28 28 28 28 28 29 30 31 31 31 32 31 31 31 32 32 32 32 33 33 33 33 33 33 33 33 32 32 32 31 30 29 29 28 27 27 27 26 26 25 25 24 25 25 26 28
36 37 38 39 39 39 39 39 38 38 38 38 38 38 38 38 38 38 38 37 37 37 37 37 36 36 36 35 34 34 32 34 33 33 32 31 30 30 30 31 31 31 30 29 28 28 28 29 29 29 29 29 29 28 28 28 28 28 29 29 29 30 31 32 32 32 33 33 33 33 33 34 34 34 35 35 35 35 35 35 35 34 34 34 33 33 33 32 31 30 29 28 27 26 26 25 25 24 23 24 24 25 28
36 38 38 39 40 40 40 39 39 39 39 39 38 38 38 38 39 38 38 39 38 38 38 38 38 37 37 37 36 35 34 34 34 34 33 32 31 30 30 31 32 32 31 30 30 29 30 30 31 31 30 30 30 30 30 30 30 30 30 31 31 32 32 33 33 33 34 34 34 34 35 36 36 36 37 37 37 37 36 36 36 35 35 35 34 34 33 33 32 31 30 29 27 26 25 25 24 23 22 22 23 23 24
38 38 39 40 40 40 40 40 40 39 39 39 39 39 39 39 39 39 39 40 40 40 40 40 39 39 39 38 38 37 36 35 35 35 34 33 32 31 31 32 32 32 32 32 32 32 31 32 32 33 32 31 31 31 31 31 31 32 32 32 33 33 34 34 34 34 35 35 35 36 37 37 38 38 38 38 38 38 38 37 37 36 36 35 34 34 33 33 32 32 31 30 28 27 25 24 23 22 21 21 21 21 21
39 40 40 41 41 40 40 40 40 40 40 40 40 40 40 40 40 40 41 41 41 41 41 41 40 40 40 39 39 38 37 36 35 34 34 33 32 32 32 32 32 32 32 33 33 33 33 34 35 34 33 33 32 32 32 32 33 33 33 34 34 34 35 35 36 36 36 37 37 38 39 39 39 40 39 39 39 39 38 38 38 37 36 35 35 34 33 33 32 31 31 31 30 29 27 26 24 22 21 19 19 20 20
41 41 41 41 41 41 41 41 41 41 41 41 40 40 40 41 41 41 42 42 42 42 42 41 41 40 40 40 39 39 38 37 36 34 33 32 32 33 32 32 32 32 33 33 33 34 34 35 36 36 35 35 34 33 33 34 34 34 34 35 36 36 37 37 37 37 38 39 39 40 40 40 40 40 40 40 39 39 39 38 38 37 36 36 35 34 33 32 32 31 31 31 31 31 31 29 26 24 22 20 19 19 19
42 42 42 42 42 42 42 42 42 42 42 42 42 41 41 42 42 42 43 43 43 43 42 42 41 41 41 41 41 40 39 38 37 35 34 33 32 32 31 31 31 32 32 32 33 33 35 35 36 37 37 37 36 36 35 35 35 36 36 36 37 37 38 38 38 39 40 40 41 41 41 41 41 41 40 40 40 39 39 38 38 37 36 36 35 34 33 32 31 31 31 31 32 32 32 31 29 26 23 22 20 20 20
43 43 43 43 44 44 44 43 43 43 43 43 43 43 43 43 43 43 44 44 44 43 43 42 42 42 42 42 42 41 40 39 37 36 34 33 31 30 29 29 29 29 30 30 31 32 34 35 36 37 38 38 39 39 38 37 37 37 37 38 38 39 39 39 40 41 41 41 41 42 42 42 41 41 40 40 39 39 38 38 37 37 36 35 34 33 32 31 31 31 31 31 31 31 31 29 28 26 25 23 22 21 21